RH
12 11 11 11 11 11 10 9 9 9 8 7 7 7 7 9 9 9 9 9 9 9 10 10 11 11 11 11 11 12 12 12 11 12 13 13 11 10 10 8 9 13 15 15 15 17 19 20 21 21 22 22 23 25 27 27 28 30 36 42 42 41 41 41 45 46 50 55 51 53 56 54 55 55 56 59 60 61 65 68 67 67 66 70 74 70 66 67
12 12 11 11 11 11 10 9 9 9 8 8 8 7 6 8 9 9 10 9 10 10 10 11 11 12 12 11 11 12 11 11 11 12 13 12 10 9 8 8 10 14 15 15 17 18 19 19 20 20 21 22 24 26 28 29 30 36 41 43 45 44 43 44 46 46 51 53 50 52 54 53 53 53 56 62 63 65 68 70 72 71 69 74 77 72 71 71
12 11 11 11 11 11 10 10 10 10 9 8 9 8 6 8 9 9 10 10 10 11 11 12 12 12 12 11 11 11 10 10 12 12 12 10 8 8 7 9 12 14 15 16 17 18 18 19 20 19 20 22 25 28 29 32 34 40 43 42 43 44 44 47 48 49 51 53 53 52 52 50 52 53 57 63 63 67 70 73 77 74 70 75 76 73 74 74
12 12 12 11 10 11 11 11 12 11 10 8 9 8 7 9 9 9 10 10 11 11 12 13 13 12 11 11 11 10 10 11 11 11 10 8 8 7 9 11 13 15 16 16 17 18 20 20 20 20 22 26 29 31 32 35 37 38 40 39 40 42 44 46 47 48 49 52 52 49 50 51 54 57 62 65 65 70 73 74 77 74 74 75 74 76 77 77
12 11 12 11 10 11 11 12 12 11 9 9 8 7 7 9 9 9 10 10 11 12 13 14 13 12 11 11 11 11 11 12 10 10 9 8 8 9 11 13 15 16 16 17 18 20 21 21 20 22 27 32 31 33 34 36 36 36 37 39 40 42 44 44 43 45 47 48 48 48 51 55 58 60 64 65 66 73 73 72 75 74 76 76 75 79 80 80
12 12 11 11 10 11 12 13 13 10 9 9 8 7 8 10 10 9 10 11 12 13 14 15 14 12 11 11 11 11 13 11 10 10 9 10 11 12 13 15 16 17 18 19 20 21 22 21 23 27 31 34 34 35 38 37 38 39 39 40 42 42 42 43 44 45 48 48 48 52 55 57 61 64 68 68 70 74 75 76 78 77 77 77 79 81 82 82
12 12 11 10 10 11 13 13 14 10 8 9 8 8 10 10 10 10 11 12 14 15 16 15 13 12 11 11 11 11 12 11 11 11 11 12 13 14 15 16 17 18 18 19 20 21 20 21 26 31 33 34 36 39 40 40 41 41 40 40 41 41 43 45 46 47 49 51 52 56 58 60 62 67 71 72 73 75 76 78 77 79 81 79 81 81 82 82
12 12 11 11 11 11 13 14 15 11 9 10 9 10 11 10 10 11 12 14 16 17 17 15 13 12 12 12 13 13 12 12 13 13 14 15 15 16 17 17 18 18 19 20 21 21 21 23 27 32 34 34 38 40 40 42 43 40 40 41 41 43 46 48 48 50 51 53 57 58 58 60 62 66 68 69 71 73 74 75 73 78 82 80 82 82 82 83
13 12 11 10 11 12 14 15 16 14 10 10 11 11 10 10 11 12 14 16 18 18 16 15 13 12 12 13 15 15 14 14 15 16 17 17 17 18 18 19 19 20 21 21 22 22 23 26 28 32 34 35 40 41 40 43 44 41 41 42 45 46 49 50 51 52 54 57 62 58 57 60 62 65 66 67 70 71 72 73 71 75 80 81 84 85 84 84
13 12 11 11 11 13 16 16 17 16 12 10 11 11 10 11 12 13 16 18 19 18 16 14 13 14 13 14 17 16 14 16 17 18 19 18 19 19 20 20 21 21 22 23 24 24 24 27 30 32 35 37 41 40 39 40 42 43 43 44 47 48 49 50 50 52 54 58 59 54 55 58 58 61 64 66 69 70 72 74 74 76 81 84 85 86 85 83
14 12 11 11 12 14 16 17 17 16 12 9 10 10 11 12 13 17 19 19 19 17 16 14 14 15 15 17 20 16 15 17 18 20 19 19 20 20 21 21 21 22 24 26 27 26 26 29 34 36 40 42 39 37 38 38 41 46 47 47 49 49 50 50 50 52 53 55 57 54 54 56 56 58 59 62 64 68 72 75 78 80 82 84 84 85 85 83
15 12 11 11 12 14 16 16 16 15 11 10 10 11 12 13 16 19 19 19 18 17 15 14 15 16 16 19 20 16 16 19 20 21 20 21 21 21 21 22 23 26 27 29 30 30 30 34 39 42 44 43 39 39 39 40 45 50 52 52 50 49 51 52 50 53 52 51 55 57 58 58 58 57 57 58 60 63 69 72 77 81 82 83 83 84 85 84
15 12 12 11 13 15 16 15 14 12 11 11 12 12 13 15 18 19 19 19 18 17 16 15 17 17 19 20 19 17 19 21 22 22 21 22 22 21 22 23 26 29 31 32 34 36 38 41 43 43 44 42 41 42 40 44 49 50 52 51 49 47 49 51 50 51 51 50 53 57 59 61 59 57 56 57 58 62 65 67 72 77 80 81 82 83 84 84
16 14 12 12 13 16 16 16 14 11 12 13 12 12 13 16 18 19 20 20 19 18 16 16 17 18 20 20 19 20 21 23 23 22 22 22 22 23 24 26 29 33 34 35 39 41 42 43 42 41 43 41 39 41 43 48 50 49 51 50 49 49 49 49 49 50 50 50 53 54 56 60 60 57 56 57 58 62 64 65 69 73 76 78 80 82 82 83
16 15 12 12 13 16 17 17 17 14 13 12 11 12 15 17 19 20 21 20 19 19 17 16 17 19 20 20 21 22 23 24 23 23 23 23 24 26 27 28 32 36 37 38 42 44 42 40 39 40 42 41 40 43 46 47 46 47 53 51 49 51 51 51 51 51 51 50 51 52 57 63 61 57 57 59 59 60 62 63 67 69 71 73 76 78 78 80
17 15 13 12 14 17 17 19 20 16 12 11 12 15 17 18 21 22 22 21 20 20 19 17 17 21 22 21 22 24 24 25 24 24 24 24 27 28 29 31 35 39 38 40 44 45 42 39 41 42 42 43 44 44 45 46 45 48 53 52 51 51 52 54 53 52 52 52 52 53 59 65 62 56 55 59 61 61 60 61 64 65 66 68 70 73 74 76
16 16 14 12 13 16 18 18 19 18 14 12 14 17 18 20 22 23 23 22 22 21 20 18 18 22 23 22 24 25 25 25 24 25 24 25 28 31 32 33 39 41 40 43 45 43 41 40 42 44 45 46 45 47 49 48 48 51 56 52 51 52 52 55 56 53 54 54 54 55 58 62 61 56 55 57 60 60 58 57 59 60 61 63 64 66 68 71
15 16 15 13 13 16 18 19 18 18 17 15 15 18 19 21 24 25 24 23 23 22 20 18 18 22 23 23 24 25 25 25 25 25 24 25 29 33 36 37 42 43 43 45 44 42 42 42 44 46 47 47 49 53 49 46 51 56 58 53 49 52 52 54 58 56 56 56 57 58 60 61 60 58 57 58 58 56 55 55 55 57 60 61 62 63 64 66
15 16 15 13 13 15 19 19 18 18 18 17 18 20 20 22 25 26 25 25 27 28 24 19 19 25 24 23 24 24 23 25 25 25 25 26 30 35 39 41 43 44 45 45 43 43 43 44 46 48 48 45 48 52 47 45 52 53 55 53 48 50 51 55 58 56 56 57 58 60 61 62 62 60 60 60 58 56 54 54 55 56 58 58 60 62 62 62
15 15 15 13 13 15 19 20 19 18 19 20 21 23 24 26 29 28 25 26 28 29 26 21 22 28 26 23 24 23 23 24 25 25 25 27 31 35 40 41 41 42 43 43 43 42 44 46 47 47 47 43 43 45 44 48 52 50 50 50 48 51 53 54 54 53 53 55 58 59 60 62 62 60 59 59 59 58 56 55 55 55 55 56 58 59 61 61
14 14 15 14 12 14 18 20 20 20 22 23 24 27 27 31 35 31 27 27 25 26 26 21 23 26 26 24 23 23 23 24 25 25 25 28 30 33 40 41 39 40 40 41 41 39 43 47 44 42 43 43 43 41 44 51 52 50 50 52 53 55 54 52 52 51 51 53 56 57 60 63 61 59 60 59 57 56 56 56 55 55 55 55 54 56 57 58
14 14 15 13 12 14 18 21 22 23 25 26 26 28 29 32 34 30 29 29 25 26 26 21 22 25 24 24 23 23 24 24 24 24 27 31 32 33 39 41 39 40 40 40 39 37 40 41 38 39 40 41 41 41 46 51 48 46 51 56 55 51 50 50 51 50 51 52 54 58 65 66 61 59 61 61 60 60 60 58 55 54 54 54 54 54 55 55
13 13 14 14 12 14 18 21 24 26 27 28 28 28 30 32 29 26 30 31 26 26 24 22 23 24 25 24 23 23 23 25 24 25 30 33 34 37 41 41 39 39 39 38 38 38 36 34 33 35 38 40 41 42 48 50 47 46 53 54 50 47 49 50 52 52 52 52 54 60 64 64 63 61 60 61 62 64 65 62 58 56 56 56 55 55 55 54
14 12 14 14 12 13 17 20 25 29 29 29 29 28 31 31 28 28 30 28 26 26 22 21 23 24 25 24 23 24 24 25 25 27 32 34 36 39 40 40 39 38 37 35 35 36 34 32 32 34 36 38 41 45 49 51 47 48 55 51 45 47 50 51 53 53 53 52 55 63 64 62 66 65 61 60 59 62 65 65 64 62 61 59 56 55 54 53
13 12 13 14 12 13 16 20 26 30 30 29 29 29 31 32 30 29 30 28 25 24 20 18 21 23 23 23 24 25 26 27 28 30 32 34 38 39 38 38 38 36 34 33 32 32 32 32 32 33 34 35 40 44 46 49 47 47 52 48 43 50 52 51 54 57 60 56 52 61 64 62 65 64 64 64 59 60 63 65 66 64 64 63 61 59 58 57
13 12 13 14 12 12 15 19 25 30 30 29 30 29 30 33 31 27 28 27 22 21 20 17 20 23 22 24 26 26 27 28 31 31 31 35 39 37 34 36 36 34 32 31 30 29 29 30 31 32 34 35 39 41 41 47 48 47 47 45 47 52 51 51 55 59 61 56 51 56 61 62 63 62 63 64 60 59 62 63 63 62 62 63 63 61 60 61
14 12 12 14 13 12 14 17 21 28 29 29 29 29 30 32 30 26 27 25 20 19 20 17 20 22 22 24 26 26 27 28 30 31 32 37 37 33 32 32 31 30 30 29 29 28 27 28 29 30 33 36 39 40 39 43 47 46 45 45 49 51 51 53 56 56 54 54 54 57 61 64 62 58 60 62 61 61 63 61 58 58 59 61 64 61 57 58
15 12 11 14 13 12 14 14 17 24 27 28 28 28 29 31 28 27 26 23 20 19 17 16 18 19 21 23 25 28 30 28 30 32 34 36 34 31 31 29 28 27 28 29 29 27 25 26 27 28 33 35 36 36 37 41 46 46 44 45 47 50 51 52 54 53 54 58 59 57 60 65 62 58 59 60 62 63 63 61 56 53 55 58 62 62 58 57
16 12 11 13 13 13 14 13 15 20 24 26 27 27 29 29 27 27 25 22 21 19 18 19 19 17 19 21 23 30 31 29 31 34 35 34 31 30 29 28 27 26 26 27 26 24 24 25 25 26 31 32 32 32 34 40 45 44 44 45 46 47 48 51 52 53 54 58 59 57 58 63 65 62 59 59 62 63 62 60 55 51 52 54 56 59 59 57
17 12 11 13 13 12 12 12 12 17 21 23 26 27 27 28 28 26 23 24 22 20 20 22 22 20 20 22 25 29 31 31 34 33 33 32 30 29 28 27 27 26 25 25 25 24 24 25 24 25 29 30 29 31 34 39 42 43 44 44 45 46 45 48 49 50 55 57 56 55 54 60 64 61 57 55 54 57 60 60 56 52 52 52 52 53 54 54
17 13 11 12 13 12 12 14 12 14 19 22 24 27 27 29 31 27 23 25 24 22 23 26 27 26 26 28 31 32 33 34 33 31 30 30 28 27 27 26 26 25 25 24 24 26 25 25 25 25 27 28 30 33 35 38 40 42 44 43 46 48 47 50 50 50 56 56 53 52 52 58 64 61 57 54 50 51 55 55 53 51 52 51 50 51 52 52
18 13 12 13 14 13 13 14 13 14 18 21 23 26 29 30 31 28 24 25 26 26 29 31 31 32 31 32 33 33 32 32 31 31 30 28 27 27 26 25 26 26 26 25 25 26 25 25 26 25 27 28 31 34 36 39 40 41 43 44 48 51 49 53 53 50 52 54 50 50 52 60 65 63 61 59 54 51 50 49 49 50 51 50 50 51 52 52
19 13 12 14 15 12 11 13 14 17 19 21 24 28 31 31 32 30 27 28 32 31 32 34 34 34 33 32 32 31 31 31 31 30 30 28 27 27 26 25 25 25 27 27 26 26 25 24 23 25 27 28 32 35 38 39 39 43 46 46 50 51 48 49 50 48 50 53 47 47 54 60 62 63 63 62 58 54 51 47 48 50 49 50 50 51 52 50
19 13 13 15 15 12 13 14 16 18 20 22 27 30 32 33 32 31 29 31 33 30 32 35 35 34 31 31 31 30 31 31 30 30 29 29 30 28 26 26 23 23 26 27 27 27 28 28 25 25 27 28 31 34 36 36 36 41 44 44 47 49 45 44 47 47 48 51 48 48 53 57 61 63 61 60 59 55 54 48 47 50 49 49 51 51 52 51
19 13 15 15 14 13 14 15 16 18 21 25 30 30 31 32 31 29 29 31 32 31 32 34 32 30 30 31 31 30 31 31 29 30 30 31 33 31 29 28 23 23 25 27 28 27 28 30 27 26 27 27 28 30 32 35 38 40 40 41 44 44 41 40 45 46 46 49 49 48 51 53 59 61 55 56 59 55 54 49 46 50 48 48 51 51 53 53
20 15 17 16 13 14 15 15 16 17 22 29 31 30 32 34 32 30 28 29 32 32 32 31 29 29 30 31 30 30 31 31 29 30 31 32 32 31 30 29 27 25 25 27 28 27 28 30 26 25 26 25 26 28 28 33 40 39 37 39 40 37 36 40 45 46 44 48 48 47 51 53 55 58 53 54 58 56 54 51 48 48 48 48 51 51 52 53
22 18 20 16 14 14 14 15 16 18 23 30 31 31 34 35 33 30 28 29 32 32 30 31 31 31 32 32 31 31 31 30 30 31 32 32 32 31 30 30 29 27 25 27 29 28 29 31 26 25 26 26 25 27 27 29 35 37 36 37 36 35 36 39 44 45 44 47 47 44 50 52 54 58 55 54 60 60 57 54 49 48 48 49 51 52 53 54
24 20 20 17 14 15 14 14 16 19 26 31 32 32 33 35 34 31 29 30 32 31 30 34 33 32 34 34 33 32 30 30 30 31 32 33 34 33 32 31 31 30 27 26 28 28 28 30 28 24 26 26 24 25 29 29 31 34 36 35 35 38 43 42 42 44 43 44 45 45 47 47 48 54 55 55 60 61 58 54 50 50 49 48 50 52 53 55
25 21 20 16 15 16 15 14 16 22 27 31 34 33 31 34 35 33 31 32 32 31 32 36 35 32 35 37 35 31 30 30 31 32 33 34 35 34 33 33 33 33 31 28 29 29 28 30 30 26 24 26 25 26 31 33 31 31 32 32 32 35 41 42 40 41 41 40 42 45 47 46 45 47 51 53 56 56 55 53 51 49 47 46 48 51 52 54
27 23 21 17 17 18 16 14 16 21 27 31 35 35 32 33 36 37 35 33 33 34 34 34 33 33 34 35 34 32 30 30 31 32 33 34 35 35 34 33 34 35 33 29 28 30 30 29 31 29 24 25 28 28 30 33 31 30 32 32 33 32 34 37 38 38 39 39 40 40 43 48 47 43 49 54 53 52 51 50 48 47 47 48 49 51 53 55
28 25 22 19 18 18 17 15 16 20 26 30 34 36 34 35 37 39 38 36 34 34 34 33 33 34 34 34 34 33 30 30 30 31 33 33 34 36 35 35 36 35 34 32 29 30 31 29 29 30 27 28 31 30 28 30 29 30 32 33 35 35 34 36 38 39 37 37 39 36 38 49 47 40 47 53 50 50 50 48 47 47 48 50 50 53 55 55
29 27 24 20 19 19 18 16 16 19 24 28 31 35 37 38 39 39 38 37 35 34 34 34 33 33 34 35 34 33 30 30 30 30 33 33 33 36 37 37 39 37 35 35 33 32 33 31 29 31 31 31 31 28 27 28 27 28 32 34 35 35 34 36 38 41 38 36 38 35 36 47 46 38 45 50 48 50 50 48 48 47 49 51 52 55 56 55
29 28 25 22 21 20 19 16 15 17 21 27 30 33 38 39 38 40 38 36 35 34 33 33 33 33 35 35 34 32 32 32 30 31 33 33 32 37 40 40 40 38 35 36 35 33 34 33 32 34 33 31 28 27 26 28 28 30 32 31 31 32 34 35 36 39 39 36 38 35 36 47 46 39 42 46 46 48 48 48 49 49 49 51 53 56 55 54
31 28 26 24 22 21 21 19 15 15 19 25 29 33 37 39 39 40 37 34 35 35 33 33 33 33 35 35 35 34 33 32 31 31 33 33 32 36 41 42 40 38 37 37 37 36 35 35 35 34 33 31 30 29 28 28 29 32 33 31 31 32 32 34 36 37 36 36 36 32 36 49 47 39 41 45 46 47 47 48 49 50 50 51 54 56 54 54
31 29 26 26 24 23 24 22 18 16 18 22 27 32 36 39 40 41 38 35 35 35 34 34 33 33 35 37 36 35 32 33 33 32 32 31 31 35 40 42 40 39 39 38 37 37 36 37 36 34 34 34 33 32 32 33 32 32 33 32 31 33 33 35 38 38 36 38 37 31 37 50 46 38 42 48 48 46 47 49 50 50 51 52 54 55 54 53
32 29 26 27 26 24 23 22 19 18 17 19 24 30 34 38 40 41 41 39 37 37 35 33 33 34 36 37 39 37 33 32 33 33 32 31 31 34 38 41 41 40 39 37 37 37 36 37 37 36 37 38 37 35 34 34 33 33 34 33 32 36 37 38 39 40 41 42 38 35 40 46 44 39 44 51 52 48 47 49 50 50 51 52 54 55 53 53
32 28 27 28 28 27 24 22 20 18 18 19 22 26 32 36 38 40 42 42 41 39 36 33 33 34 36 38 40 40 35 33 32 31 32 32 31 33 37 40 41 41 39 37 38 38 36 36 38 36 36 35 35 34 33 33 34 34 35 36 36 37 38 39 39 40 40 36 36 40 42 42 42 40 41 47 50 49 48 49 50 51 51 52 54 53 52 52
31 30 30 30 32 30 26 24 21 19 20 20 21 25 29 32 36 40 41 41 42 40 37 34 33 34 36 37 39 40 37 34 33 31 31 32 31 32 34 36 37 40 39 38 37 38 36 37 38 36 33 31 31 32 34 36 37 37 38 38 37 35 36 38 38 36 35 34 38 42 41 41 44 41 39 42 46 47 50 50 50 51 51 51 52 51 51 51
33 33 32 30 33 32 30 29 25 22 22 21 22 24 25 28 35 39 38 39 42 40 37 36 33 33 35 35 37 40 39 35 35 33 31 32 32 33 35 35 36 37 38 38 38 38 36 37 37 35 34 34 32 32 34 36 38 39 38 38 37 34 33 34 35 33 32 35 37 37 37 41 43 40 39 42 45 48 51 51 51 51 50 50 50 49 49 48
36 35 33 30 32 34 34 32 25 24 26 25 24 24 23 29 35 35 33 37 41 40 37 37 36 34 33 34 35 39 39 36 37 37 34 34 34 35 37 37 36 37 38 38 38 37 35 37 38 35 35 35 33 32 33 33 36 39 38 35 34 33 32 33 34 33 34 35 35 35 38 42 41 38 40 42 45 50 52 52 51 51 50 50 50 50 49 46
37 35 34 32 31 33 35 32 24 26 31 29 28 28 26 30 35 33 33 36 38 40 38 38 40 39 36 35 35 37 38 37 38 39 38 37 37 37 39 38 37 38 39 38 38 37 34 35 37 35 35 37 34 33 32 32 35 38 37 35 33 34 35 34 33 33 35 38 39 37 39 43 40 38 40 42 45 50 53 52 51 50 51 51 50 49 47 45
40 37 35 34 33 33 34 31 24 27 33 33 33 33 30 30 31 32 36 38 37 41 42 42 42 41 39 39 37 36 38 38 38 40 40 39 39 39 39 39 39 40 40 39 39 38 32 31 33 32 34 39 37 34 35 36 37 39 37 35 34 34 34 34 33 33 34 37 40 39 41 44 42 39 40 43 46 50 51 50 50 51 51 50 48 46 44 43